SCP
0 0 0 0 0 0 0 0 0 0 0 0 0 0 0 0 0 0 0 0 0 0 0 0 0 0 -0 -0 -0 -0 0 0 0 0 0 0 0 0 0 0 0 0 0 0 0 0 -0 0 0 0 0 0 0 0
0 0 0 0 0 0 0 0 0 0 0 0 0 0 0 0 0 0 0 0 0 0 0 0 0 -0 -0 -0 -0 0 -0 -0 -0 0 0 0 0 0 0 0 0 0 0 0 0 0 0 0 0 0 0 0 0 0
0 0 0 0 0 0 0 0 0 0 0 0 0 0 0 0 0 0 0 0 0 0 0 0 0 0 0 -0 -0 0 0 -0 0 0 0 -0 -0 0 -0 0 0 0 0 0 0 0 0 0 0 0 0 0 -0 -0
0 0 0 0 0 0 0 0 0 0 0 0 0 0 0 0 0 0 0 0 0 0 0 0 0 0 0 0 0 -0 0 0 -0 -0 0 0 0 0 -0 -0 -0 0 0 0 0 0 0 0 0 0 0 0 0 -0
0 0 0 0 0 0 0 0 0 -0 -0 0 0 0 0 0 0 0 0 0 0 0 0 0 0 0 0 0 0 -0 -0 -0 0 0 0 0 0 0 0 0 -0 0 0 0 0 0 0 0 0 0 0 0 -0 -0
0 0 0 0 0 0 0 0 0 -0 -0 0 0 0 0 0 0 0 0 0 0 0 0 0 0 0 0 0 0 -0 0 0 0 0 0 0 0 0 0 0 -0 0 0 -0 -0 0 0 0 0 0 0 0 0 0
0 0 0 0 0 0 0 0 -0 -0 -0 0 0 0 0 0 0 0 0 0 0 0 0 0 0 0 0 0 0 0 0 0 0 0 0 0 0 0 0 0 -0 -0 0 0 0 0 0 0 -0 -0 0 0 0 0
0 0 0 0 0 0 0 0 -0 -0 -0 0 0 0 0 0 0 0 0 0 0 0 0 0 0 0 0 0 0 0 0 0 0 0 0 0 0 0 0 0 -0 -0 -0 -0 0 0 0 0 0 0 0 0 0 0
0 0 0 0 0 0 0 -0 -0 -0 -0 0 0 0 0 0 0 0 0 0 0 0 0 0 0 0 0 0 0 0 0 0 0 0 0 0 0 0 0 -0 0 0 0 0 0 0 0 0 -0 0 0 0 0 0
0 0 0 0 0 0 0 -0 -0 -0 -0 0 0 0 0 0 0 0 0 0 0 0 0 0 0 0 0 0 0 0 0 0 0 0 0 0 0 -0 -0 0 -0 -0 0 0 -0 -0 -0 -0 0 0 0 0 0 0
0 0 0 0 0 0 -0 -0 -0 -0 0 0 0 0 0 0 0 0 0 0 0 0 0 0 0 0 0 0 0 0 0 0 0 0 0 0 0 0 -0 -0 0 0 -0 -0 -0 -0 0 0 0 0 0 0 0 0
0 0 0 0 0 -0 -0 -0 -0 0 0 0 0 0 0 0 0 0 0 0 0 0 0 0 0 0 0 0 0 0 0 0 0 0 0 0 0 0 -0 -0 -0 -0 -0 -0 -0 -0 -0 0 0 0 0 0 0 0
0 0 0 0 0 -0 -0 -0 0 0 0 0 0 0 0 0 0 0 0 0 0 0 0 0 0 0 0 0 0 0 0 0 0 0 0 0 0 0 0 0 -0 -0 -0 -0 -0 -0 -0 -0 0 0 0 0 0 0
0 0 0 0 0 -0 -0 -0 0 0 0 0 0 0 0 0 0 0 0 0 0 0 0 0 0 0 0 0 0 0 0 0 0 0 0 0 -0 -0 -0 0 -0 0 -0 0 0 0 -0 0 -0 -0 0 -0 0 0
0 0 0 0 -0 -0 -0 0 0 0 0 0 0 -0 0 0 0 0 0 0 0 0 0 0 0 0 0 0 0 0 0 0 0 0 0 0 -0 -0 -0 -0 -0 -0 -0 0 0 0 0 0 0 0 -0 -0 -0 -0
-0 0 0 0 -0 -0 0 0 0 0 0 0 0 0 0 0 0 0 0 0 0 0 0 0 0 0 0 0 0 -0 0 0 0 0 0 0 0 -0 -0 -0 -0 -0 -0 -0 -0 -0 -0 -0 -0 -0 0 0 0 0
-0 0 0 -0 -0 -0 0 0 0 0 -0 -0 -0 0 0 0 0 0 0 0 0 0 0 0 0 0 -0 0 0 0 0 0 0 0 0 0 -0 -0 -0 -0 -0 -0 -0 0 -0 -0 -0 -0 -0 -0 -0 -0 -0 -0
0 0 -0 -0 -0 0 0 0 0 0 -0 0 0 -0 0 0 0 -0 0 0 0 0 0 0 0 0 0 0 0 0 0 0 0 0 0 0 0 0 0 -0 0 0 0 0 0 0 -0 -0 -0 0 -0 0 -0 -0
0 -0 -0 -0 0 0 0 0 0 -0 0 0 0 0 -0 -0 0 -0 0 0 0 0 0 0 0 0 0 -0 -0 0 0 0 0 0 0 0 0 0 0 0 0 0 -0 0 0 -0 -0 0 -0 -0 0 0 0 0
0 0 0 0 0 0 0 0 0 0 0 0 0 0 0 0 0 0 0 0 0 0 0 -0 -0 -0 -0 -0 -0 -0 -0 0 0 0 0 0 0 0 0 0 0 0 0 0 0 0 0 0 0 0 0 0 0 0
0 0 0 0 0 0 0 0 0 0 0 0 0 0 0 0 0 0 0 0 -0 -0 -0 -0 -0 -0 -0 -0 -0 -0 -0 0 0 0 0 0 0 0 0 0 0 0 0 0 0 0 0 0 0 0 0 0 0 0
0 0 0 0 0 0 0 0 0 0 0 0 0 0 0 0 0 0 0 0 0 0 0 0 0 0 0 0 0 0 0 0 0 0 0 0 0 0 0 0 0 0 0 0 -0 0 0 0 0 0 0 0 0 0
0 -0 0 0 0 0 0 0 0 0 0 0 0 0 0 0 0 0 0 0 0 0 0 0 0 0 0 0 0 0 0 0 0 0 0 0 0 0 0 0 0 0 0 0 0 0 0 0 0 0 0 0 0 0
0 0 0 0 0 0 0 0 0 0 0 0 0 0 0 0 0 0 0 0 0 0 0 0 0 0 0 0 0 0 0 0 0 0 0 0 0 0 0 0 0 0 0 -0 -0 -0 0 0 0 0 0 0 0 0
0 -0 0 -0 0 0 0 0 0 0 0 0 0 0 0 0 0 0 0 0 0 0 0 0 0 0 0 0 0 0 0 0 0 0 0 0 0 0 0 0 0 0 0 0 0 0 0 0 0 0 0 0 0 0
0 0 0 0 0 0 0 0 0 0 0 0 0 0 0 0 0 0 0 0 0 0 0 0 0 0 0 0 0 0 0 0 0 0 0 0 0 0 0 0 0 0 0 0 0 0 0 0 0 0 0 0 0 0
0 0 0 0 0 0 0 0 0 0 0 0 0 0 0 0 0 0 0 0 0 0 0 0 0 0 0 0 0 0 0 0 0 0 0 0 0 0 0 0 0 0 -0 0 0 0 0 0 0 0 0 0 0 0
0 0 0 0 0 0 0 0 0 0 0 0 0 0 0 0 0 0 0 0 0 0 0 0 0 0 0 0 0 0 0 0 0 0 0 0 0 0 0 0 0 0 0 0 0 0 0 0 0 0 0 0 0 0
0 0 0 0 0 0 0 0 0 0 0 0 0 0 0 0 0 0 0 0 0 0 0 0 0 0 0 0 0 0 0 0 0 0 0 0 0 0 0 0 0 0 0 0 0 0 0 0 0 0 0 0 0 0
0 0 0 0 0 0 0 0 0 0 0 0 0 0 0 0 0 0 0 0 0 0 0 0 0 0 0 0 0 0 0 0 0 0 0 0 0 0 0 0 0 0 0 0 0 0 0 0 0 0 0 0 0 0
0 0 0 0 0 0 0 0 0 0 0 0 0 0 0 0 0 0 0 0 0 0 0 0 0 0 0 0 0 0 0 0 0 0 0 0 0 0 0 0 0 0 0 0 0 0 0 0 0 0 0 0 0 0
0 0 0 0 0 0 0 0 0 0 0 0 0 0 0 0 0 0 0 0 0 0 0 0 0 0 0 0 0 0 0 0 0 0 0 0 0 0 0 0 0 0 0 0 0 0 0 0 0 0 0 0 0 0
0 0 0 0 0 0 0 0 0 0 0 0 0 0 0 0 0 0 0 0 0 0 0 0 0 0 0 0 0 0 0 0 0 0 0 0 0 0 0 0 0 0 0 0 0 0 0 0 0 0 0 0 0 0
Wind_Speed_500mb
45 48 51 52 54 57 62 62 63 68 66 64 63 60 56 54 51 36 48 42 32 21 43 41 40 33 22 19 8 5 15 3 4 5 4 7 7 6 8 15 9 13 14 14 22 20 39 13 35 26 8 16 27 36
46 48 52 57 59 61 65 68 69 71 69 67 66 62 60 62 49 39 45 43 39 38 39 51 56 56 57 56 37 15 17 8 7 5 4 4 7 7 8 9 12 15 22 13 20 19 25 28 38 50 26 40 43 42
50 52 55 60 64 68 68 71 72 72 72 71 67 64 72 59 43 35 38 39 32 31 48 31 22 10 17 33 50 26 19 27 20 15 6 6 13 7 11 18 27 17 25 20 30 40 47 66 73 65 42 45 44 42
56 58 61 66 67 71 72 71 72 72 72 72 68 75 70 48 33 30 29 32 28 8 8 18 15 40 32 23 36 57 49 14 20 25 16 8 7 18 10 19 23 22 15 19 32 39 47 66 68 65 58 50 51 47
62 64 65 67 68 68 71 72 71 71 71 69 73 75 55 32 18 21 24 28 31 23 8 24 54 5 10 11 36 42 53 54 39 10 10 7 9 10 15 16 30 38 42 25 27 37 34 47 47 48 45 51 40 44
62 65 67 69 70 69 68 69 67 68 67 68 73 67 39 18 11 11 4 6 15 21 7 7 15 9 13 12 19 36 44 35 31 14 13 18 43 13 9 13 36 60 66 74 44 56 50 54 52 47 44 35 35 36
64 67 68 67 67 66 64 63 64 63 64 68 72 48 19 12 6 3 2 8 15 9 5 8 10 8 16 11 10 24 30 25 25 13 13 14 15 23 7 28 65 74 63 67 55 43 54 64 42 33 43 30 35 28
65 66 65 64 62 60 58 57 57 60 67 68 46 21 18 29 17 6 17 24 9 4 3 5 8 12 9 8 8 16 13 21 17 11 10 8 10 12 12 34 71 78 86 83 71 75 73 58 31 35 44 32 25 27
64 63 62 59 57 54 52 51 55 65 66 44 22 10 10 19 10 11 11 10 13 3 3 3 5 7 17 9 9 8 14 6 12 7 6 8 4 8 32 55 71 34 10 33 57 54 52 49 35 45 41 42 25 38
61 59 56 53 50 47 47 50 60 65 51 27 14 9 10 11 7 10 11 3 1 5 5 4 7 6 10 8 7 12 6 8 5 4 19 4 7 53 94 48 41 26 10 24 24 16 22 13 25 34 52 55 36 53
58 52 48 46 45 42 46 56 61 65 35 17 11 11 13 4 4 5 4 2 2 4 7 10 11 8 6 5 5 8 5 5 6 7 10 9 18 45 94 91 57 52 59 57 37 42 41 41 21 50 55 53 43 49
54 47 41 41 37 40 50 54 57 54 28 23 15 15 14 11 10 7 8 3 1 7 5 7 9 11 10 7 5 3 4 3 10 18 9 8 23 81 93 104 104 89 85 67 52 52 42 38 40 46 52 69 68 61
49 40 36 35 36 41 44 47 52 48 28 20 15 11 15 18 13 13 18 7 11 20 13 33 6 7 7 6 7 5 14 11 13 9 9 13 49 62 75 88 98 103 116 98 89 73 81 74 64 59 59 62 62 66
41 28 31 31 33 37 43 39 48 43 18 12 14 16 11 10 10 5 13 13 21 25 42 24 10 8 9 8 7 11 9 7 9 9 10 17 55 54 55 57 85 94 94 105 108 100 95 79 78 83 91 89 82 78
29 21 27 31 35 33 32 31 33 39 17 14 17 11 10 17 22 28 26 22 26 19 23 9 6 10 10 8 8 10 12 11 9 10 10 44 45 46 58 60 58 62 78 86 80 80 78 77 74 71 71 74 73 68
24 14 21 26 34 31 22 26 27 24 15 14 18 10 22 12 34 37 40 41 40 13 7 14 11 10 16 9 14 15 10 11 11 14 42 37 42 53 61 65 67 66 63 58 57 61 61 66 69 73 75 72 66 65
23 18 16 19 22 36 22 19 20 20 16 12 11 23 17 13 21 35 40 47 42 22 7 9 12 11 9 10 14 10 9 11 31 32 31 32 38 46 51 55 60 64 67 67 67 68 68 66 64 65 64 56 53 55
25 18 18 15 10 19 28 28 12 14 12 11 9 19 26 33 29 33 42 63 33 19 15 10 12 15 8 8 10 14 19 32 20 20 22 26 31 39 45 50 52 56 57 58 57 56 57 59 61 55 49 47 49 51
18 20 19 17 13 12 8 10 10 8 8 5 10 17 21 21 41 42 44 46 48 37 11 11 12 8 7 7 15 27 27 22 18 19 20 24 30 35 40 44 47 49 50 50 49 50 47 45 45 42 38 36 41 42
13 16 21 23 19 7 6 7 7 8 7 9 11 9 14 19 35 34 39 40 32 17 19 9 7 4 6 11 19 29 34 33 15 13 19 24 28 33 38 40 39 38 40 42 41 39 37 33 32 32 31 31 33 36
10 13 15 17 12 11 6 5 5 5 8 7 12 7 4 7 14 29 30 26 26 12 10 6 6 11 15 17 20 27 33 35 30 20 14 14 21 23 27 30 31 33 34 34 34 31 28 25 21 19 20 24 30 33
9 9 8 8 7 5 6 9 3 1 2 2 3 1 3 4 6 9 15 20 11 8 3 7 8 7 11 18 23 29 30 29 25 18 16 16 20 23 25 26 26 28 29 30 27 25 23 21 16 17 22 27 29 29
6 5 4 7 3 5 3 7 4 4 1 2 2 3 4 5 4 5 6 5 5 12 1 7 5 2 5 10 16 22 26 30 30 22 17 18 19 19 19 21 22 23 27 32 30 27 27 26 25 24 23 22 20 21
5 4 5 5 8 3 4 4 5 4 3 3 2 2 4 6 6 6 3 4 7 12 13 8 11 10 10 8 14 21 24 26 25 24 22 16 16 17 21 22 21 18 20 22 22 22 22 22 22 21 21 20 21 21
3 6 5 6 7 5 6 5 5 4 3 3 1 2 4 5 2 2 3 5 11 17 20 20 20 17 12 10 12 14 18 22 23 21 26 24 20 17 18 17 17 17 9 12 12 15 16 18 19 19 19 18 18 19
7 5 3 3 2 2 2 3 5 3 3 1 3 1 2 2 2 4 2 4 9 18 22 24 24 20 14 10 9 9 14 22 26 17 19 16 13 13 15 19 18 13 13 11 7 9 14 17 19 20 20 17 15 17
4 1 1 2 1 1 0 2 2 4 3 2 4 4 1 3 3 3 5 4 10 16 21 21 23 20 14 13 12 14 19 26 28 18 8 5 8 10 11 13 14 12 12 6 5 7 11 13 14 15 15 14 14 15
3 7 4 4 3 3 2 3 4 4 5 6 7 5 4 6 5 7 8 5 7 16 15 13 18 19 16 14 14 16 19 24 29 18 8 9 12 17 20 15 10 9 2 4 6 11 10 10 11 12 13 14 15 16
7 8 10 5 6 8 10 10 8 9 9 13 6 6 7 10 11 17 19 16 12 13 12 10 13 18 16 13 13 17 17 16 19 20 17 14 16 21 27 24 19 9 5 4 11 11 6 9 9 12 14 14 13 10
7 16 7 6 7 8 8 15 11 16 16 18 11 8 9 15 17 17 20 20 17 11 9 10 11 12 13 13 14 20 16 10 13 15 14 15 17 22 28 25 22 19 11 5 7 4 7 9 13 14 14 13 12 11
6 14 7 8 9 9 14 18 18 18 18 17 22 20 18 14 19 20 23 25 22 16 9 8 7 8 12 13 17 18 14 10 8 11 14 15 19 24 24 24 26 20 14 10 7 7 9 12 14 14 14 15 15 14
9 13 7 6 5 10 8 6 6 8 8 11 13 20 18 12 7 9 10 10 14 14 6 5 3 5 13 15 18 22 16 11 10 10 14 17 21 27 29 24 21 19 14 12 10 10 11 12 13 14 17 16 14 15
7 9 10 6 5 4 7 9 5 5 5 5 6 9 12 8 6 5 6 4 6 8 4 3 0 7 12 13 18 23 16 13 11 12 16 21 24 25 25 24 19 18 15 13 12 13 12 12 13 15 17 17 16 18
Wind_Direction_500mb
323 321 323 324 322 323 323 325 327 328 330 329 329 325 318 310 299 290 283 267 249 256 273 264 262 242 248 231 240 278 322 156 256 233 260 237 244 246 279 259 259 213 198 204 226 240 241 243 252 242 338 317 313 309
324 324 323 321 323 323 323 324 326 326 328 330 330 327 322 316 302 285 276 284 263 242 263 278 273 267 252 246 248 226 225 188 207 226 232 280 244 235 262 272 245 246 227 229 223 230 263 294 297 280 295 292 301 298
323 323 322 320 321 321 322 323 325 327 328 331 331 327 324 319 306 286 274 279 240 251 289 275 291 280 256 242 228 230 224 232 234 238 292 266 255 241 246 238 251 263 260 242 252 255 267 274 279 279 287 289 296 293
322 323 322 320 321 320 321 323 325 327 329 332 331 328 327 320 308 291 271 269 268 248 267 278 280 297 293 247 228 219 226 232 247 227 213 230 230 211 245 256 264 253 277 263 268 269 277 276 267 275 273 270 284 294
322 323 322 321 320 319 320 323 326 327 331 333 329 330 332 323 299 282 275 274 264 234 265 295 308 289 317 236 224 221 221 228 235 239 229 228 221 237 238 253 254 239 243 229 249 258 255 260 279 269 266 254 255 271
325 325 325 324 322 321 323 325 327 330 333 333 330 335 334 331 288 276 5 64 45 236 273 290 304 309 291 289 229 218 217 217 218 218 233 239 236 231 246 245 250 245 239 236 245 259 261 273 282 279 263 248 231 227
326 326 326 324 322 324 329 329 330 332 334 335 330 343 0 22 340 281 282 302 318 135 222 288 291 291 328 296 233 219 209 208 216 236 235 245 238 211 240 260 266 262 247 245 241 248 256 270 255 249 239 232 208 222
329 329 330 327 327 331 333 333 333 336 340 332 336 6 62 45 61 323 309 294 211 172 279 294 287 304 322 264 238 200 194 204 227 244 260 240 220 216 253 252 265 275 268 227 233 241 247 250 241 226 220 196 199 163
332 333 333 333 337 339 336 338 340 343 342 343 357 45 56 34 43 62 89 87 194 347 325 297 295 307 336 284 281 222 197 225 232 219 254 286 298 257 266 280 293 319 123 186 213 231 238 240 226 211 194 136 113 94
336 336 336 340 345 345 343 345 344 348 351 354 28 51 42 25 51 45 57 103 219 309 309 265 280 276 319 322 291 339 4 357 315 287 301 4 280 329 0 28 76 81 83 131 160 163 170 189 209 150 110 112 106 101
344 341 344 346 350 348 346 348 351 352 359 14 35 51 47 111 89 8 39 34 334 284 239 251 252 284 298 288 313 35 354 327 333 309 11 346 359 352 7 30 53 61 68 81 82 98 99 119 151 103 112 119 118 105
346 347 351 353 356 355 354 353 358 360 14 27 37 50 41 30 13 349 357 4 304 321 260 241 276 246 298 284 311 345 335 259 24 336 6 26 2 8 17 27 35 38 50 53 57 77 93 89 83 90 94 97 94 92
346 353 358 2 1 1 1 4 2 4 23 32 30 47 13 10 21 9 351 338 327 326 328 317 308 302 307 342 284 319 11 24 325 19 22 358 351 10 24 33 37 45 49 50 45 55 68 79 84 82 95 99 101 103
353 3 8 6 12 8 4 7 11 19 25 40 36 23 34 6 359 314 308 293 289 300 315 317 322 11 356 6 356 359 24 14 35 25 25 348 353 360 20 29 44 47 51 50 46 53 66 68 69 76 88 89 84 84
2 15 16 20 17 12 5 5 17 32 41 53 38 34 2 329 330 325 322 318 330 313 3 349 357 13 20 37 16 12 16 19 20 12 357 347 354 25 42 47 47 48 59 57 55 57 63 66 67 69 76 87 95 99
2 21 23 20 26 21 13 32 29 44 52 59 45 2 342 351 4 10 360 357 3 9 49 25 22 26 36 25 6 14 4 23 353 334 329 353 32 50 57 59 60 60 62 64 64 68 69 68 71 75 68 66 75 81
6 5 2 21 43 35 17 19 14 39 43 45 21 18 10 6 354 2 7 355 20 35 43 48 46 17 11 32 10 7 337 303 321 339 6 28 41 51 55 57 61 62 64 62 62 63 65 65 65 65 67 73 76 77
11 3 357 350 329 344 25 39 55 57 49 26 42 29 46 35 22 22 16 29 31 34 32 58 62 34 51 9 346 338 318 315 327 355 25 46 52 58 63 67 64 62 62 65 67 66 64 62 61 63 65 69 72 72
6 11 14 7 4 25 36 45 64 96 64 96 94 73 60 46 40 41 43 46 44 45 61 53 59 46 44 350 330 344 353 350 339 357 22 48 58 63 66 68 66 63 60 56 55 57 58 57 55 55 62 65 71 76
353 3 14 21 30 51 58 46 70 113 156 145 113 78 78 59 42 38 39 39 31 34 45 60 91 125 49 9 11 13 13 10 354 10 33 38 55 62 65 63 54 44 43 43 40 38 38 43 51 56 59 69 74 75
330 343 350 6 32 53 69 43 56 100 157 192 204 239 256 346 38 41 34 38 51 50 61 78 96 86 66 51 38 28 18 19 24 27 21 28 46 50 55 52 46 40 36 27 21 20 28 32 36 56 67 72 76 76
327 326 357 16 37 69 74 32 60 46 103 150 149 353 3 18 30 27 41 44 48 24 88 145 132 94 57 41 30 21 15 9 4 13 29 30 32 32 31 31 29 28 30 31 32 31 32 44 58 69 76 77 76 71
345 10 31 21 33 44 92 25 39 18 355 47 39 37 20 17 34 50 74 30 31 22 47 197 204 345 23 30 29 20 12 9 11 7 5 14 15 18 16 15 21 22 21 27 33 42 50 61 69 72 68 66 59 52
45 68 37 35 27 33 22 40 23 37 49 40 46 41 27 9 4 51 73 331 349 358 353 286 254 280 301 345 18 21 17 14 4 357 356 2 359 1 4 6 8 14 25 29 33 41 47 45 41 35 33 31 32 33
47 26 29 36 21 20 33 15 19 28 26 22 52 47 24 353 33 40 349 343 345 1 359 347 332 303 291 326 355 4 6 2 353 348 344 340 345 343 346 352 353 354 11 20 25 36 37 33 32 31 29 27 28 28
77 24 50 20 29 30 13 4 8 354 304 171 68 74 22 35 327 319 252 294 341 356 0 358 349 338 318 320 346 2 355 354 349 335 329 330 339 354 354 354 356 354 349 356 12 21 18 16 14 14 12 14 22 24
85 120 133 19 6 53 184 244 257 250 239 191 162 155 157 341 301 257 267 317 347 346 350 359 358 353 329 327 338 350 354 356 354 334 331 353 10 18 15 8 357 352 349 12 47 21 0 -0 6 13 21 24 15 8
190 184 203 201 226 220 247 236 236 236 212 186 164 192 210 209 215 211 218 246 325 341 340 351 2 2 338 321 330 345 352 4 11 11 292 335 349 356 350 336 316 333 41 66 1 349 354 4 8 8 8 3 355 356
218 213 196 229 219 227 227 213 227 218 207 183 202 199 223 217 232 231 239 256 294 329 334 330 340 356 348 330 334 344 343 5 20 24 29 28 17 7 15 20 16 353 301 327 339 340 5 4 6 2 357 357 3 19
222 195 201 215 220 233 237 213 234 232 221 220 223 236 261 281 278 266 259 262 284 303 299 316 320 340 341 338 337 343 331 330 9 27 23 20 10 7 12 15 18 19 13 328 338 333 347 355 356 358 1 2 2 359
230 192 221 221 247 259 269 261 252 242 239 240 242 245 254 269 282 279 273 267 267 262 275 327 353 11 13 1 349 339 329 303 313 358 14 5 356 356 354 0 10 7 357 354 345 333 332 337 342 348 352 354 355 358
214 211 213 236 247 278 285 222 240 234 255 250 255 250 257 260 264 260 270 268 252 245 269 330 349 15 17 11 360 351 336 301 277 304 330 336 341 342 341 336 338 358 6 9 4 349 342 343 341 346 347 345 344 346
228 226 226 265 272 257 218 194 229 262 256 257 262 258 252 242 266 265 291 291 240 229 259 196 277 9 356 350 355 357 352 338 291 299 319 322 327 329 332 337 319 321 345 357 1 358 354 351 347 345 349 348 339 336
Wind_Speed_850mb
45 48 51 52 54 57 62 62 63 68 66 64 63 60 56 54 51 36 48 42 32 21 43 41 40 33 22 19 8 5 15 3 4 5 4 7 7 6 8 15 9 13 14 14 22 20 39 13 35 26 8 16 27 36
46 48 52 57 59 61 65 68 69 71 69 67 66 62 60 62 49 39 45 43 39 38 39 51 56 56 57 56 37 15 17 8 7 5 4 4 7 7 8 9 12 15 22 13 20 19 25 28 38 50 26 40 43 42
50 52 55 60 64 68 68 71 72 72 72 71 67 64 72 59 43 35 38 39 32 31 48 31 22 10 17 33 50 26 19 27 20 15 6 6 13 7 11 18 27 17 25 20 30 40 47 66 73 65 42 45 44 42
56 58 61 66 67 71 72 71 72 72 72 72 68 75 70 48 33 30 29 32 28 8 8 18 15 40 32 23 36 57 49 14 20 25 16 8 7 18 10 19 23 22 15 19 32 39 47 66 68 65 58 50 51 47
62 64 65 67 68 68 71 72 71 71 71 69 73 75 55 32 18 21 24 28 31 23 8 24 54 5 10 11 36 42 53 54 39 10 10 7 9 10 15 16 30 38 42 25 27 37 34 47 47 48 45 51 40 44
62 65 67 69 70 69 68 69 67 68 67 68 73 67 39 18 11 11 4 6 15 21 7 7 15 9 13 12 19 36 44 35 31 14 13 18 43 13 9 13 36 60 66 74 44 56 50 54 52 47 44 35 35 36
64 67 68 67 67 66 64 63 64 63 64 68 72 48 19 12 6 3 2 8 15 9 5 8 10 8 16 11 10 24 30 25 25 13 13 14 15 23 7 28 65 74 63 67 55 43 54 64 42 33 43 30 35 28
65 66 65 64 62 60 58 57 57 60 67 68 46 21 18 29 17 6 17 24 9 4 3 5 8 12 9 8 8 16 13 21 17 11 10 8 10 12 12 34 71 78 86 83 71 75 73 58 31 35 44 32 25 27
64 63 62 59 57 54 52 51 55 65 66 44 22 10 10 19 10 11 11 10 13 3 3 3 5 7 17 9 9 8 14 6 12 7 6 8 4 8 32 55 71 34 10 33 57 54 52 49 35 45 41 42 25 38
61 59 56 53 50 47 47 50 60 65 51 27 14 9 10 11 7 10 11 3 1 5 5 4 7 6 10 8 7 12 6 8 5 4 19 4 7 53 94 48 41 26 10 24 24 16 22 13 25 34 52 55 36 53
58 52 48 46 45 42 46 56 61 65 35 17 11 11 13 4 4 5 4 2 2 4 7 10 11 8 6 5 5 8 5 5 6 7 10 9 18 45 94 91 57 52 59 57 37 42 41 41 21 50 55 53 43 49
54 47 41 41 37 40 50 54 57 54 28 23 15 15 14 11 10 7 8 3 1 7 5 7 9 11 10 7 5 3 4 3 10 18 9 8 23 81 93 104 104 89 85 67 52 52 42 38 40 46 52 69 68 61
49 40 36 35 36 41 44 47 52 48 28 20 15 11 15 18 13 13 18 7 11 20 13 33 6 7 7 6 7 5 14 11 13 9 9 13 49 62 75 88 98 103 116 98 89 73 81 74 64 59 59 62 62 66
41 28 31 31 33 37 43 39 48 43 18 12 14 16 11 10 10 5 13 13 21 25 42 24 10 8 9 8 7 11 9 7 9 9 10 17 55 54 55 57 85 94 94 105 108 100 95 79 78 83 91 89 82 78
29 21 27 31 35 33 32 31 33 39 17 14 17 11 10 17 22 28 26 22 26 19 23 9 6 10 10 8 8 10 12 11 9 10 10 44 45 46 58 60 58 62 78 86 80 80 78 77 74 71 71 74 73 68
24 14 21 26 34 31 22 26 27 24 15 14 18 10 22 12 34 37 40 41 40 13 7 14 11 10 16 9 14 15 10 11 11 14 42 37 42 53 61 65 67 66 63 58 57 61 61 66 69 73 75 72 66 65
23 18 16 19 22 36 22 19 20 20 16 12 11 23 17 13 21 35 40 47 42 22 7 9 12 11 9 10 14 10 9 11 31 32 31 32 38 46 51 55 60 64 67 67 67 68 68 66 64 65 64 56 53 55
25 18 18 15 10 19 28 28 12 14 12 11 9 19 26 33 29 33 42 63 33 19 15 10 12 15 8 8 10 14 19 32 20 20 22 26 31 39 45 50 52 56 57 58 57 56 57 59 61 55 49 47 49 51
18 20 19 17 13 12 8 10 10 8 8 5 10 17 21 21 41 42 44 46 48 37 11 11 12 8 7 7 15 27 27 22 18 19 20 24 30 35 40 44 47 49 50 50 49 50 47 45 45 42 38 36 41 42
13 16 21 23 19 7 6 7 7 8 7 9 11 9 14 19 35 34 39 40 32 17 19 9 7 4 6 11 19 29 34 33 15 13 19 24 28 33 38 40 39 38 40 42 41 39 37 33 32 32 31 31 33 36
10 13 15 17 12 11 6 5 5 5 8 7 12 7 4 7 14 29 30 26 26 12 10 6 6 11 15 17 20 27 33 35 30 20 14 14 21 23 27 30 31 33 34 34 34 31 28 25 21 19 20 24 30 33
9 9 8 8 7 5 6 9 3 1 2 2 3 1 3 4 6 9 15 20 11 8 3 7 8 7 11 18 23 29 30 29 25 18 16 16 20 23 25 26 26 28 29 30 27 25 23 21 16 17 22 27 29 29
6 5 4 7 3 5 3 7 4 4 1 2 2 3 4 5 4 5 6 5 5 12 1 7 5 2 5 10 16 22 26 30 30 22 17 18 19 19 19 21 22 23 27 32 30 27 27 26 25 24 23 22 20 21
5 4 5 5 8 3 4 4 5 4 3 3 2 2 4 6 6 6 3 4 7 12 13 8 11 10 10 8 14 21 24 26 25 24 22 16 16 17 21 22 21 18 20 22 22 22 22 22 22 21 21 20 21 21
3 6 5 6 7 5 6 5 5 4 3 3 1 2 4 5 2 2 3 5 11 17 20 20 20 17 12 10 12 14 18 22 23 21 26 24 20 17 18 17 17 17 9 12 12 15 16 18 19 19 19 18 18 19
7 5 3 3 2 2 2 3 5 3 3 1 3 1 2 2 2 4 2 4 9 18 22 24 24 20 14 10 9 9 14 22 26 17 19 16 13 13 15 19 18 13 13 11 7 9 14 17 19 20 20 17 15 17
4 1 1 2 1 1 0 2 2 4 3 2 4 4 1 3 3 3 5 4 10 16 21 21 23 20 14 13 12 14 19 26 28 18 8 5 8 10 11 13 14 12 12 6 5 7 11 13 14 15 15 14 14 15
3 7 4 4 3 3 2 3 4 4 5 6 7 5 4 6 5 7 8 5 7 16 15 13 18 19 16 14 14 16 19 24 29 18 8 9 12 17 20 15 10 9 2 4 6 11 10 10 11 12 13 14 15 16
7 8 10 5 6 8 10 10 8 9 9 13 6 6 7 10 11 17 19 16 12 13 12 10 13 18 16 13 13 17 17 16 19 20 17 14 16 21 27 24 19 9 5 4 11 11 6 9 9 12 14 14 13 10
7 16 7 6 7 8 8 15 11 16 16 18 11 8 9 15 17 17 20 20 17 11 9 10 11 12 13 13 14 20 16 10 13 15 14 15 17 22 28 25 22 19 11 5 7 4 7 9 13 14 14 13 12 11
6 14 7 8 9 9 14 18 18 18 18 17 22 20 18 14 19 20 23 25 22 16 9 8 7 8 12 13 17 18 14 10 8 11 14 15 19 24 24 24 26 20 14 10 7 7 9 12 14 14 14 15 15 14
9 13 7 6 5 10 8 6 6 8 8 11 13 20 18 12 7 9 10 10 14 14 6 5 3 5 13 15 18 22 16 11 10 10 14 17 21 27 29 24 21 19 14 12 10 10 11 12 13 14 17 16 14 15
7 9 10 6 5 4 7 9 5 5 5 5 6 9 12 8 6 5 6 4 6 8 4 3 0 7 12 13 18 23 16 13 11 12 16 21 24 25 25 24 19 18 15 13 12 13 12 12 13 15 17 17 16 18
Wind_Direction_850mb
323 321 323 324 322 323 323 325 327 328 330 329 329 325 318 310 299 290 283 267 249 256 273 264 262 242 248 231 240 278 322 156 256 233 260 237 244 246 279 259 259 213 198 204 226 240 241 243 252 242 338 317 313 309
324 324 323 321 323 323 323 324 326 326 328 330 330 327 322 316 302 285 276 284 263 242 263 278 273 267 252 246 248 226 225 188 207 226 232 280 244 235 262 272 245 246 227 229 223 230 263 294 297 280 295 292 301 298
323 323 322 320 321 321 322 323 325 327 328 331 331 327 324 319 306 286 274 279 240 251 289 275 291 280 256 242 228 230 224 232 234 238 292 266 255 241 246 238 251 263 260 242 252 255 267 274 279 279 287 289 296 293
322 323 322 320 321 320 321 323 325 327 329 332 331 328 327 320 308 291 271 269 268 248 267 278 280 297 293 247 228 219 226 232 247 227 213 230 230 211 245 256 264 253 277 263 268 269 277 276 267 275 273 270 284 294
322 323 322 321 320 319 320 323 326 327 331 333 329 330 332 323 299 282 275 274 264 234 265 295 308 289 317 236 224 221 221 228 235 239 229 228 221 237 238 253 254 239 243 229 249 258 255 260 279 269 266 254 255 271
325 325 325 324 322 321 323 325 327 330 333 333 330 335 334 331 288 276 5 64 45 236 273 290 304 309 291 289 229 218 217 217 218 218 233 239 236 231 246 245 250 245 239 236 245 259 261 273 282 279 263 248 231 227
326 326 326 324 322 324 329 329 330 332 334 335 330 343 0 22 340 281 282 302 318 135 222 288 291 291 328 296 233 219 209 208 216 236 235 245 238 211 240 260 266 262 247 245 241 248 256 270 255 249 239 232 208 222
329 329 330 327 327 331 333 333 333 336 340 332 336 6 62 45 61 323 309 294 211 172 279 294 287 304 322 264 238 200 194 204 227 244 260 240 220 216 253 252 265 275 268 227 233 241 247 250 241 226 220 196 199 163
332 333 333 333 337 339 336 338 340 343 342 343 357 45 56 34 43 62 89 87 194 347 325 297 295 307 336 284 281 222 197 225 232 219 254 286 298 257 266 280 293 319 123 186 213 231 238 240 226 211 194 136 113 94
336 336 336 340 345 345 343 345 344 348 351 354 28 51 42 25 51 45 57 103 219 309 309 265 280 276 319 322 291 339 4 357 315 287 301 4 280 329 0 28 76 81 83 131 160 163 170 189 209 150 110 112 106 101
344 341 344 346 350 348 346 348 351 352 359 14 35 51 47 111 89 8 39 34 334 284 239 251 252 284 298 288 313 35 354 327 333 309 11 346 359 352 7 30 53 61 68 81 82 98 99 119 151 103 112 119 118 105
346 347 351 353 356 355 354 353 358 360 14 27 37 50 41 30 13 349 357 4 304 321 260 241 276 246 298 284 311 345 335 259 24 336 6 26 2 8 17 27 35 38 50 53 57 77 93 89 83 90 94 97 94 92
346 353 358 2 1 1 1 4 2 4 23 32 30 47 13 10 21 9 351 338 327 326 328 317 308 302 307 342 284 319 11 24 325 19 22 358 351 10 24 33 37 45 49 50 45 55 68 79 84 82 95 99 101 103
353 3 8 6 12 8 4 7 11 19 25 40 36 23 34 6 359 314 308 293 289 300 315 317 322 11 356 6 356 359 24 14 35 25 25 348 353 360 20 29 44 47 51 50 46 53 66 68 69 76 88 89 84 84
2 15 16 20 17 12 5 5 17 32 41 53 38 34 2 329 330 325 322 318 330 313 3 349 357 13 20 37 16 12 16 19 20 12 357 347 354 25 42 47 47 48 59 57 55 57 63 66 67 69 76 87 95 99
2 21 23 20 26 21 13 32 29 44 52 59 45 2 342 351 4 10 360 357 3 9 49 25 22 26 36 25 6 14 4 23 353 334 329 353 32 50 57 59 60 60 62 64 64 68 69 68 71 75 68 66 75 81
6 5 2 21 43 35 17 19 14 39 43 45 21 18 10 6 354 2 7 355 20 35 43 48 46 17 11 32 10 7 337 303 321 339 6 28 41 51 55 57 61 62 64 62 62 63 65 65 65 65 67 73 76 77
11 3 357 350 329 344 25 39 55 57 49 26 42 29 46 35 22 22 16 29 31 34 32 58 62 34 51 9 346 338 318 315 327 355 25 46 52 58 63 67 64 62 62 65 67 66 64 62 61 63 65 69 72 72
6 11 14 7 4 25 36 45 64 96 64 96 94 73 60 46 40 41 43 46 44 45 61 53 59 46 44 350 330 344 353 350 339 357 22 48 58 63 66 68 66 63 60 56 55 57 58 57 55 55 62 65 71 76
353 3 14 21 30 51 58 46 70 113 156 145 113 78 78 59 42 38 39 39 31 34 45 60 91 125 49 9 11 13 13 10 354 10 33 38 55 62 65 63 54 44 43 43 40 38 38 43 51 56 59 69 74 75
330 343 350 6 32 53 69 43 56 100 157 192 204 239 256 346 38 41 34 38 51 50 61 78 96 86 66 51 38 28 18 19 24 27 21 28 46 50 55 52 46 40 36 27 21 20 28 32 36 56 67 72 76 76
327 326 357 16 37 69 74 32 60 46 103 150 149 353 3 18 30 27 41 44 48 24 88 145 132 94 57 41 30 21 15 9 4 13 29 30 32 32 31 31 29 28 30 31 32 31 32 44 58 69 76 77 76 71
345 10 31 21 33 44 92 25 39 18 355 47 39 37 20 17 34 50 74 30 31 22 47 197 204 345 23 30 29 20 12 9 11 7 5 14 15 18 16 15 21 22 21 27 33 42 50 61 69 72 68 66 59 52
45 68 37 35 27 33 22 40 23 37 49 40 46 41 27 9 4 51 73 331 349 358 353 286 254 280 301 345 18 21 17 14 4 357 356 2 359 1 4 6 8 14 25 29 33 41 47 45 41 35 33 31 32 33
47 26 29 36 21 20 33 15 19 28 26 22 52 47 24 353 33 40 349 343 345 1 359 347 332 303 291 326 355 4 6 2 353 348 344 340 345 343 346 352 353 354 11 20 25 36 37 33 32 31 29 27 28 28
77 24 50 20 29 30 13 4 8 354 304 171 68 74 22 35 327 319 252 294 341 356 0 358 349 338 318 320 346 2 355 354 349 335 329 330 339 354 354 354 356 354 349 356 12 21 18 16 14 14 12 14 22 24
85 120 133 19 6 53 184 244 257 250 239 191 162 155 157 341 301 257 267 317 347 346 350 359 358 353 329 327 338 350 354 356 354 334 331 353 10 18 15 8 357 352 349 12 47 21 0 -0 6 13 21 24 15 8
190 184 203 201 226 220 247 236 236 236 212 186 164 192 210 209 215 211 218 246 325 341 340 351 2 2 338 321 330 345 352 4 11 11 292 335 349 356 350 336 316 333 41 66 1 349 354 4 8 8 8 3 355 356
218 213 196 229 219 227 227 213 227 218 207 183 202 199 223 217 232 231 239 256 294 329 334 330 340 356 348 330 334 344 343 5 20 24 29 28 17 7 15 20 16 353 301 327 339 340 5 4 6 2 357 357 3 19
222 195 201 215 220 233 237 213 234 232 221 220 223 236 261 281 278 266 259 262 284 303 299 316 320 340 341 338 337 343 331 330 9 27 23 20 10 7 12 15 18 19 13 328 338 333 347 355 356 358 1 2 2 359
230 192 221 221 247 259 269 261 252 242 239 240 242 245 254 269 282 279 273 267 267 262 275 327 353 11 13 1 349 339 329 303 313 358 14 5 356 356 354 0 10 7 357 354 345 333 332 337 342 348 352 354 355 358
214 211 213 236 247 278 285 222 240 234 255 250 255 250 257 260 264 260 270 268 252 245 269 330 349 15 17 11 360 351 336 301 277 304 330 336 341 342 341 336 338 358 6 9 4 349 342 343 341 346 347 345 344 346
228 226 226 265 272 257 218 194 229 262 256 257 262 258 252 242 266 265 291 291 240 229 259 196 277 9 356 350 355 357 352 338 291 299 319 322 327 329 332 337 319 321 345 357 1 358 354 351 347 345 349 348 339 336